Regional Weather Roundup
Issued by NWS

Home | Current Version | Previous Version | Text Only | Print | Product List | Glossary On
Versions: 1 2 3 4 5 6 7 8 9 10 11 12 13 14 15 16 17 18 19 20 21 22 23 24 25 26 27 28 29 30 31 32 33 34 35 36 37 38 39 40 41 42 43 44 45 46 47 48 49 50
846
ASUS43 KBIS 190002
RWRND

NORTH DAKOTA REGIONAL WEATHER ROUNDUP
NATIONAL WEATHER SERVICE BISMARCK ND
700 PM CDT WED OCT 18 2017

NOTE: "FAIR" INDICATES FEW OR NO CLOUDS BELOW 12,000 FEET WITH NO
SIGNIFICANT WEATHER AND/OR OBSTRUCTIONS TO VISIBILITY.


NDZ001>003-009>011-017-190100-
NORTHWEST NORTH DAKOTA

CITY           SKY/WX    TMP DP  RH WIND       PRES   REMARKS
WILLISTON      CLOUDY    53  23  31 W9        29.90S
6HR MIN TEMP:  53; 6HR MAX TEMP:  57;

MINOT          CLEAR     51  22  31 W9        29.89S
MINOT AFB      CLEAR     48  22  35 W8        29.88R
$$

NDZ018>021-031>035-040>046-190100-
SOUTHWEST NORTH DAKOTA

CITY           SKY/WX    TMP DP  RH WIND       PRES   REMARKS
BISMARCK       CLEAR     52  24  33 W6        29.96S
6HR MIN TEMP:  52; 6HR MAX TEMP:  62;

DICKINSON      CLOUDY    48  25  40 SW6       29.92S
GARRISON         N/A     47  22  37 W7        29.92R
6HR MIN TEMP:  47; 6HR MAX TEMP:  56;

HETTINGER ARPT CLOUDY    50  25  37 SW7       29.98S
$$

NDZ004>008-012>016-024-026-027-054-190100-
NORTHEAST NORTH DAKOTA

CITY           SKY/WX    TMP DP  RH WIND       PRES   REMARKS
GRAND FORKS    PTCLDY    55  19  24 W15G26    29.86R
GRND FRKS AFB  CLEAR     54  17  23 W15G23    29.86R
DEVILS LAKE    CLEAR     52  22  30 W21G29    29.88R
$$

NDZ022-023-025-028>030-036>039-047>053-190100-
SOUTHEAST NORTH DAKOTA

CITY           SKY/WX    TMP DP  RH WIND       PRES   REMARKS
FARGO          CLEAR     52  21  29 W10       29.92R
6HR MIN TEMP:  52; 6HR MAX TEMP:  63; 6HR PCP: TRACE;

JAMESTOWN      CLEAR     50  22  33 W8        29.94R
$$





USA.gov is the U.S. government's official web portal to all federal, state and local government web resources and services.